| time (UTC) | temp F | wind direction | speed knots | gust knots | rain 1hr in | rain 24hr in | rain mn in | humidity % | barometer mb |
| 20260906014545 | 64 | 295 | 0.0 | 3.5 | 0.00 | 0.01 | 0.01 | 60 | 1015.1 |
| 20260906013032 | 65 | 300 | 0.0 | 4.3 | 0.00 | 0.01 | 0.01 | 59 | 1015.1 |
| 20260906011527 | 66 | 290 | 1.7 | 5.2 | 0.00 | 0.01 | 0.01 | 59 | 1015.1 |
| 20260906010052 | 66 | 284 | 0.0 | 1.7 | 0.00 | 0.01 | 0.01 | 60 | 1015.1 |
| 20260906004518 | 66 | 284 | 0.0 | 3.5 | 0.00 | 0.01 | 0.01 | 59 | 1015.2 |
| 20260906003015 | 67 | 286 | 0.0 | 2.6 | 0.00 | 0.01 | 0.01 | 56 | 1015.1 |
| 20260906001510 | 67 | 291 | 0.0 | 4.3 | 0.00 | 0.01 | 0.01 | 58 | 1015.0 |
| 20260906000006 | 67 | 286 | 2.6 | 4.3 | 0.00 | 0.01 | 0.01 | 55 | 1014.9 |
| 20260905234502 | 67 | 279 | 0.0 | 4.3 | 0.00 | 0.01 | 0.01 | 56 | 1014.9 |
| 20260905233057 | 67 | 260 | 1.7 | 4.3 | 0.00 | 0.01 | 0.01 | 56 | 1015.0 |
| 20260905231552 | 67 | 296 | 0.0 | 2.6 | 0.00 | 0.01 | 0.01 | 57 | 1015.2 |
| 20260905230050 | 68 | 204 | 0.0 | 3.5 | 0.00 | 0.01 | 0.01 | 56 | 1015.3 |
| 20260905224546 | 68 | 284 | 0.9 | 5.2 | 0.00 | 0.01 | 0.01 | 55 | 1015.4 |
| 20260905223042 | 67 | 291 | 0.9 | 4.3 | 0.00 | 0.01 | 0.01 | 55 | 1015.5 |
| 20260905221536 | 67 | 288 | 1.7 | 6.1 | 0.00 | 0.01 | 0.01 | 55 | 1015.6 |
| 20260905220029 | 67 | 313 | 0.9 | 4.3 | 0.00 | 0.04 | 0.01 | 57 | 1015.7 |
| 20260905214525 | 67 | 288 | 0.9 | 4.3 | 0.00 | 0.04 | 0.01 | 57 | 1015.9 |
| 20260905213021 | 67 | 267 | 2.6 | 6.1 | 0.00 | 0.04 | 0.01 | 55 | 1015.8 |
| 20260905211534 | 66 | 184 | 0.9 | 3.5 | 0.00 | 0.04 | 0.01 | 55 | 1016.0 |
| 20260905210012 | 66 | 119 | 0.0 | 2.6 | 0.00 | 0.05 | 0.01 | 54 | 1016.1 |
| 20260905204509 | 67 | 76 | 0.0 | 1.7 | 0.00 | 0.05 | 0.01 | 53 | 1016.2 |
| 20260905203003 | 66 | 72 | 0.0 | 2.6 | 0.00 | 0.05 | 0.01 | 53 | 1016.3 |
| 20260905201607 | 64 | 346 | 0.0 | 2.6 | 0.00 | 0.05 | 0.01 | 53 | 1016.3 |
| 20260905200057 | 64 | 273 | 0.0 | 3.5 | 0.00 | 0.05 | 0.01 | 53 | 1016.5 |
| 20260905194550 | 63 | 130 | 0.0 | 1.7 | 0.00 | 0.05 | 0.01 | 51 | 1016.6 |
| 20260905193045 | 63 | 181 | 0.9 | 3.5 | 0.00 | 0.05 | 0.01 | 51 | 1016.8 |
| 20260905191540 | 63 | 180 | 0.9 | 2.6 | 0.00 | 0.05 | 0.01 | 49 | 1016.9 |
| 20260905190037 | 62 | 287 | 0.9 | 3.5 | 0.00 | 0.05 | 0.01 | 47 | 1016.9 |
| 20260905184532 | 61 | 281 | 0.0 | 1.7 | 0.00 | 0.05 | 0.01 | 44 | 1017.0 |
| 20260905183036 | 60 | 281 | 0.0 | 1.7 | 0.00 | 0.05 | 0.01 | 35 | 1017.0 |
| 20260905181522 | 60 | 282 | 0.0 | 3.5 | 0.00 | 0.05 | 0.01 | 26 | 1017.1 |
| 20260905180018 | 59 | 247 | 0.0 | 2.6 | 0.00 | 0.05 | 0.01 | 16 | 1017.0 |
| 20260905174514 | 57 | 242 | 0.0 | 3.5 | 0.00 | 0.05 | 0.01 | 100 | 1017.1 |
| 20260905173009 | 56 | 188 | 0.0 | 2.6 | 0.00 | 0.05 | 0.01 | 100 | 1017.2 |
| 20260905171504 | 56 | 243 | 0.0 | 2.6 | 0.00 | 0.05 | 0.01 | 100 | 1017.2 |
| 20260905170108 | 55 | 245 | 0.0 | 3.5 | 0.00 | 0.05 | 0.01 | 100 | 1017.1 |
| 20260905164603 | 55 | 290 | 0.0 | 0.9 | 0.00 | 0.05 | 0.01 | 100 | 1017.1 |
| 20260905163052 | 55 | 290 | 0.0 | 1.7 | 0.00 | 0.05 | 0.01 | 100 | 1017.1 |
| 20260905161547 | 55 | 290 | 0.0 | 0.9 | 0.00 | 0.05 | 0.01 | 100 | 1017.1 |
| 20260905160042 | 54 | 290 | 0.0 | 0.9 | 0.00 | 0.05 | 0.01 | 100 | 1017.1 |
| 20260905154539 | 54 | 290 | 0.0 | 0.9 | 0.00 | 0.05 | 0.01 | 100 | 1017.1 |
| 20260905153034 | 53 | 290 | 0.0 | 0.9 | 0.00 | 0.05 | 0.01 | 100 | 1017.1 |
| 20260905151535 | 53 | 290 | 0.0 | 1.7 | 0.01 | 0.05 | 0.01 | 100 | 1017.1 |
| 20260905150026 | 53 | 275 | 0.0 | 0.9 | 0.01 | 0.07 | 0.01 | 100 | 1017.0 |
| 20260905144529 | 53 | 214 | 0.0 | 0.0 | 0.01 | 0.07 | 0.01 | 100 | 1017.1 |
| 20260905143016 | 52 | 214 | 0.0 | 0.9 | 0.01 | 0.07 | 0.01 | 100 | 1017.0 |
| 20260905141512 | 52 | 214 | 0.0 | 0.0 | 0.00 | 0.06 | 0.00 | 100 | 1017.0 |
| 20260905140007 | 52 | 214 | 0.0 | 0.0 | 0.00 | 0.07 | 0.00 | 100 | 1017.0 |
| 20260905134503 | 52 | 214 | 0.0 | 0.9 | 0.00 | 0.07 | 0.00 | 100 | 1017.0 |
| 20260905133059 | 52 | 213 | 0.0 | 0.9 | 0.00 | 0.07 | 0.00 | 100 | 1016.9 |
| 20260905131558 | 52 | 213 | 0.0 | 1.7 | 0.00 | 0.07 | 0.00 | 100 | 1016.8 |
| 20260905130049 | 52 | 217 | 0.0 | 1.7 | 0.00 | 0.07 | 0.00 | 100 | 1016.7 |
| 20260905124546 | 52 | 218 | 0.0 | 0.0 | 0.00 | 0.07 | 0.00 | 100 | 1016.7 |
| 20260905123041 | 52 | 218 | 0.0 | 0.0 | 0.00 | 0.07 | 0.00 | 100 | 1016.6 |
| 20260905121542 | 52 | 218 | 0.0 | 0.9 | 0.00 | 0.07 | 0.00 | 100 | 1016.4 |
| 20260905120032 | 52 | 218 | 0.0 | 0.9 | 0.00 | 0.07 | 0.00 | 100 | 1016.5 |
| 20260905114527 | 52 | 213 | 0.0 | 0.0 | 0.00 | 0.07 | 0.00 | 100 | 1016.6 |
| 20260905113023 | 52 | 213 | 0.0 | 0.0 | 0.00 | 0.07 | 0.00 | 100 | 1016.5 |
| 20260905111522 | 52 | 213 | 0.0 | 0.0 | 0.00 | 0.07 | 0.00 | 100 | 1016.4 |
| 20260905110014 | 52 | 213 | 0.0 | 0.9 | 0.00 | 0.08 | 0.00 | 100 | 1016.4 |
| 20260905104510 | 52 | 213 | 0.0 | 0.0 | 0.00 | 0.08 | 0.00 | 100 | 1016.4 |
| 20260905103008 | 52 | 213 | 0.0 | 0.0 | 0.00 | 0.08 | 0.00 | 100 | 1016.4 |
| 20260905101502 | 52 | 213 | 0.0 | 1.7 | 0.00 | 0.08 | 0.00 | 100 | 1016.5 |
| 20260905094553 | 52 | 206 | 0.0 | 0.0 | 0.00 | 0.10 | 0.00 | 100 | 1016.4 |
| 20260905093049 | 52 | 206 | 0.0 | 0.0 | 0.00 | 0.10 | 0.00 | 100 | 1016.4 |
| 20260905091543 | 52 | 206 | 0.0 | 0.0 | 0.00 | 0.10 | 0.00 | 100 | 1016.4 |
| 20260905090059 | 52 | 206 | 0.0 | 0.0 | 0.00 | 0.16 | 0.00 | 100 | 1016.3 |
| 20260905084535 | 52 | 206 | 0.0 | 0.0 | 0.00 | 0.16 | 0.00 | 100 | 1016.4 |
| 20260905083031 | 52 | 206 | 0.0 | 0.0 | 0.00 | 0.16 | 0.00 | 100 | 1016.2 |
| 20260905081526 | 53 | 206 | 0.0 | 0.0 | 0.00 | 0.16 | 0.00 | 100 | 1016.2 |
| 20260905080021 | 53 | 206 | 0.0 | 0.0 | 0.00 | 0.18 | 0.00 | 100 | 1015.9 |
| 20260905074517 | 53 | 206 | 0.0 | 0.0 | 0.00 | 0.18 | 0.00 | 100 | 1015.9 |
| 20260905073016 | 53 | 206 | 0.0 | 0.0 | 0.00 | 0.18 | 0.00 | 100 | 1015.9 |
| 20260905071508 | 53 | 206 | 0.0 | 0.0 | 0.00 | 0.18 | 0.00 | 100 | 1015.9 |
| 20260905070004 | 54 | 206 | 0.0 | 0.0 | 0.00 | 0.19 | 0.18 | 100 | 1015.8 |
| 20260905064600 | 53 | 206 | 0.0 | 0.0 | 0.00 | 0.19 | 0.18 | 100 | 1015.8 |
| 20260905063055 | 53 | 206 | 0.0 | 0.0 | 0.00 | 0.19 | 0.18 | 100 | 1015.8 |
| 20260905061555 | 53 | 206 | 0.0 | 1.7 | 0.00 | 0.19 | 0.18 | 100 | 1015.6 |
| 20260905060047 | 53 | 206 | 0.0 | 0.9 | 0.00 | 0.19 | 0.18 | 100 | 1015.7 |
| 20260905054542 | 53 | 206 | 0.0 | 0.0 | 0.00 | 0.19 | 0.18 | 100 | 1015.5 |
| 20260905053036 | 54 | 206 | 0.0 | 0.0 | 0.00 | 0.19 | 0.18 | 100 | 1015.5 |
| 20260905051533 | 54 | 206 | 0.0 | 0.0 | 0.00 | 0.19 | 0.18 | 100 | 1015.4 |
| 20260905050028 | 53 | 206 | 0.0 | 0.0 | 0.00 | 0.19 | 0.18 | 100 | 1015.4 |
| 20260905044528 | 53 | 206 | 0.0 | 0.0 | 0.00 | 0.19 | 0.18 | 100 | 1015.3 |
| 20260905043020 | 53 | 206 | 0.0 | 0.0 | 0.00 | 0.19 | 0.18 | 100 | 1015.2 |
| 20260905041514 | 54 | 206 | 0.0 | 0.0 | 0.00 | 0.19 | 0.18 | 100 | 1015.1 |
| 20260905040010 | 54 | 206 | 0.0 | 0.0 | 0.00 | 0.19 | 0.18 | 100 | 1014.9 |
| 20260905034506 | 54 | 206 | 0.0 | 0.0 | 0.00 | 0.19 | 0.18 | 100 | 1014.8 |
| 20260905033002 | 55 | 206 | 0.0 | 0.9 | 0.00 | 0.19 | 0.18 | 100 | 1014.6 |
| 20260905031600 | 55 | 206 | 0.0 | 0.9 | 0.00 | 0.19 | 0.18 | 100 | 1014.5 |
| 20260905030053 | 55 | 206 | 0.0 | 2.6 | 0.00 | 0.26 | 0.18 | 100 | 1014.4 |
| 20260905024548 | 56 | 208 | 0.0 | 0.9 | 0.00 | 0.26 | 0.18 | 1 | 1014.2 |
| 20260905023046 | 56 | 207 | 0.0 | 1.7 | 0.00 | 0.26 | 0.18 | 10 | 1014.4 |
| 20260905021540 | 57 | 208 | 0.0 | 1.7 | 0.00 | 0.26 | 0.18 | 19 | 1014.4 |
| 20260905020035 | 58 | 193 | 0.0 | 0.9 | 0.00 | 0.28 | 0.18 | 27 | 1014.4 |